Tracking 21045 objects as of 4-Aug-2020
HD Live streaming from Space Station
objects crossing your sky now

COSMOS 2523

Track COSMOS 2523 now!
10-day predictions


NORAD ID: 42986
Int'l Code: 2017-037E
Perigee: 559.7 km
Apogee: 671.1 km
Inclination: 97.8 °
Period: 96.9 minutes
Semi major axis: 6986 km
RCS: Unknown
Launch date: June 23, 2017
Source: Commonwealth of Independent States (former USSR) (CIS)
Launch site: PLESETSK MISSILE AND SPACE COMPLEX (PKMTR)
aabbcc
Your satellite tracking list
Your tracking list is empty




NASA's NSSDC Master Catalog

Two Line Element Set (TLE):
1 42986U 17037E   20216.86183436 -.00000168 +00000-0 -11616-4 0  9993
2 42986 097.7557 278.3506 0079756 143.7565 216.9085 14.86704734149860
Source of the keplerian elements: AFSPC